Location: Biltmore Gardens
(41.6070°N, 83.4666°W)
Time: 14:47:46
(UTC+00:00)

Meteor 2-17 Rocket - Pass Details

Date: 14 July 2020
Orbit: 935 x 956 km, 82.5° (Epoch: 12 August)

Event Time Altitude Azimuth Distance (km) Brightness Sun altitude
Exits shadow 03:02:51 13° 189° (S) 2,431 6.2 -17.1°
Maximum altitude 03:08:20 83° 278° (W) 948 4.4 -17.7°
Drops below altitude 10° 03:14:25 10° 7° (N) 2,655 7.5 -18.4°
Sets 03:16:54 0° 8° (N) 3,603 8.2 -18.6°
